W4RJF Weather Reports


Display with metric or nautical units.
time (UTC)temp
F
wind
direction
speed
MPH
gust
MPH
rain 1hr
in
rain 24hr
in
rain mn
in
humidity
%
barometer
mb
20260902185018 98 198 0.0 2.0 0.00 0.00 0.00 49 1017.5
20260902184545 97 83 0.0 2.0 0.00 0.00 0.00 48 1017.6
20260902184012 96 84 0.0 2.0 0.00 0.00 0.00 49 1017.7
20260902183512 96 92 0.0 2.0 0.00 0.00 0.00 47 1017.7
20260902183030 97 98 1.0 2.0 0.00 0.00 0.00 48 1017.8
20260902182515 97 102 0.0 4.0 0.00 0.00 0.00 49 1017.7
20260902182015 96 42 1.0 4.0 0.00 0.00 0.00 50 1017.7
20260902181531 97 345 0.0 2.0 0.00 0.00 0.00 48 1017.8
20260902181015 96 200 0.0 2.0 0.00 0.00 0.00 51 1017.8
20260902180517 95 92 0.0 2.0 0.00 0.00 0.00 53 1017.8
20260902180032 94 85 1.0 2.0 0.00 0.00 0.00 52 1017.9
20260902175516 94 107 0.0 2.0 0.00 0.00 0.00 54 1017.9
20260902175015 94 325 0.0 3.0 0.00 0.00 0.00 52 1018.0
20260902174536 94 323 1.0 3.0 0.00 0.00 0.00 52 1018.1
20260902174021 94 167 0.0 2.0 0.00 0.00 0.00 54 1018.1
20260902173519 94 179 0.0 2.0 0.00 0.00 0.00 55 1018.1
20260902173035 94 273 0.0 2.0 0.00 0.00 0.00 56 1018.2
20260902172513 93 229 0.0 1.0 0.00 0.00 0.00 58 1018.2
20260902172014 93 126 0.0 2.0 0.00 0.00 0.00 56 1018.2
20260902171530 93 100 0.0 2.0 0.00 0.00 0.00 57 1018.2
20260902171013 92 148 0.0 2.0 0.00 0.00 0.00 57 1018.3
20260902170518 92 161 0.0 2.0 0.00 0.00 0.00 58 1018.4
20260902170030 92 208 0.0 2.0 0.00 0.00 0.00 58 1018.5
20260902165517 92 284 0.0 2.0 0.00 0.00 0.00 57 1018.5
20260902165017 92 89 0.0 2.0 0.00 0.00 0.00 55 1018.6
20260902164514 92 76 0.0 2.0 0.00 0.00 0.00 58 1018.6
20260902164006 91 99 0.0 2.0 0.00 0.00 0.00 58 1018.7
20260902163506 91 80 0.0 2.0 0.00 0.00 0.00 60 1018.8
20260902163013 91 179 0.0 1.0 0.00 0.00 0.00 58 1018.8
20260902162502 91 70 0.0 1.0 0.00 0.00 0.00 58 1018.7
20260902162004 91 63 0.0 1.0 0.00 0.00 0.00 58 1018.7
20260902161504 91 30 0.0 2.0 0.00 0.00 0.00 58 1018.6
20260902161004 91 69 0.0 2.0 0.00 0.00 0.00 58 1018.7
20260902160506 91 61 0.0 2.0 0.00 0.00 0.00 1018.7
20260902160009 91 323 0.0 2.0 0.00 0.00 0.00 58 1018.7
20260902155505 91 308 0.0 2.0 0.00 0.00 0.00 58 1018.9
20260902155009 91 313 0.0 2.0 0.00 0.00 0.00 62 1018.8
20260902154514 91 298 0.0 2.0 0.00 0.00 0.00 59 1018.8
20260902154009 91 334 0.0 2.0 0.00 0.00 0.00 59 1018.8
20260902153506 91 92 0.0 2.0 0.00 0.00 0.00 59 1018.8
20260902153038 91 88 0.0 2.0 0.00 0.00 0.00 59 1018.8
20260902152507 91 85 0.0 2.0 0.00 0.00 0.00 59 1018.8
20260902152007 90 100 1.0 2.0 0.00 0.00 0.00 61 1018.8
20260902151504 90 245 0.0 2.0 0.00 0.00 0.00 64 1018.7
20260902151005 89 248 0.0 3.0 0.00 0.00 0.00 63 1018.7
20260902150503 89 113 0.0 3.0 0.00 0.00 0.00 62 1018.6
20260902150006 89 91 0.0 2.0 0.00 0.00 0.00 64 1018.6
20260902145505 88 78 0.0 2.0 0.00 0.00 0.00 64 1018.7
20260902145003 88 41 0.0 2.0 0.00 0.00 0.00 65 1018.7
20260902144509 87 318 0.0 2.0 0.00 0.00 0.00 64 1018.6
20260902144006 87 102 0.0 2.0 0.00 0.00 0.00 65 1018.6
20260902143507 87 103 0.0 2.0 0.00 0.00 0.00 65 1018.6
20260902143015 87 230 0.0 2.0 0.00 0.00 0.00 69 1018.6
20260902142509 86 92 0.0 2.0 0.00 0.00 0.00 69 1018.7
20260902142008 86 96 0.0 1.0 0.00 0.00 0.00 69 1018.6
20260902141518 86 288 0.0 2.0 0.00 0.00 0.00 71 1018.4
20260902141012 86 302 0.0 2.0 0.00 0.00 0.00 70 1018.4
20260902140503 85 87 0.0 2.0 0.00 0.00 0.00 71 1018.4
20260902140004 85 74 0.0 2.0 0.00 0.00 0.00 72 1018.4
20260902135503 85 319 0.0 2.0 0.00 0.00 0.00 73 1018.4
20260902135003 84 5 0.0 2.0 0.00 0.00 0.00 72 1018.5
20260902134507 84 321 0.0 1.0 0.00 0.00 0.00 74 1018.5
20260902134005 84 321 0.0 2.0 0.00 0.00 0.00 74 1018.5
20260902133505 84 315 0.0 2.0 0.00 0.00 0.00 75 1018.6
20260902133012 83 5 0.0 2.0 0.00 0.00 0.00 77 1018.5
20260902132508 83 282 0.0 2.0 0.00 0.00 0.00 78 1018.4
20260902132008 82 346 0.0 1.0 0.00 0.00 0.00 80 1018.4
20260902131535 82 304 0.0 2.0 0.00 0.00 0.00 81 1018.5
20260902131008 81 279 0.0 2.0 0.00 0.00 0.00 81 1018.5
20260902130510 81 322 0.0 2.0 0.00 0.00 0.00 83 1018.5
20260902130024 80 334 0.0 2.0 0.00 0.00 0.00 84 1018.5
20260902125515 80 360 0.0 2.0 0.00 0.00 0.00 85 1018.5
20260902125004 80 337 0.0 2.0 0.00 0.00 0.00 85 1018.5
20260902124508 79 296 0.0 2.0 0.00 0.00 0.00 86 1018.6
20260902124003 79 337 0.0 2.0 0.00 0.00 0.00 87 1018.6
20260902123503 78 337 0.0 2.0 0.00 0.00 0.00 88 1018.6
20260902123010 77 315 0.0 1.0 0.00 0.00 0.00 89 1018.5
20260902122506 77 9 0.0 0.0 0.00 0.00 0.00 90 1018.5
20260902122007 77 352 0.0 0.0 0.00 0.00 0.00 91 1018.5
20260902121517 76 360 0.0 0.0 0.00 0.00 0.00 92 1018.5
20260902121009 76 195 0.0 0.0 0.00 0.00 0.00 92 1018.5
20260902120512 75 195 0.0 0.0 0.00 0.00 0.00 93 1018.4
20260902120025 75 195 0.0 0.0 0.00 0.00 0.00 93 1018.4
20260902115511 75 195 0.0 0.0 0.00 0.00 0.00 93 1018.4
20260902115012 75 195 0.0 0.0 0.00 0.00 0.00 93 1018.5
20260902114524 75 195 0.0 0.0 0.00 0.00 0.00 94 1018.5
20260902114003 74 195 0.0 0.0 0.00 0.00 0.00 94 1018.5
20260902113503 74 195 0.0 0.0 0.00 0.00 0.00 94 1018.6
20260902113010 74 195 0.0 0.0 0.00 0.00 0.00 94 1018.6
20260902112505 74 195 0.0 0.0 0.00 0.00 0.00 94 1018.6
20260902112005 74 195 0.0 0.0 0.00 0.00 0.00 94 1018.6
20260902111518 74 195 0.0 0.0 0.00 0.00 0.00 94 1018.5
20260902111007 74 195 0.0 0.0 0.00 0.00 0.00 94 1018.5
20260902110508 74 195 0.0 0.0 0.00 0.00 0.00 94 1018.5
20260902110036 74 195 0.0 0.0 0.00 0.00 0.00 94 1018.5
20260902105509 74 195 0.0 0.0 0.00 0.00 0.00 94 1018.6
20260902105011 74 195 0.0 0.0 0.00 0.00 0.00 94 1018.6
20260902104526 74 195 0.0 0.0 0.00 0.00 0.00 94 1018.5
20260902104011 74 195 0.0 0.0 0.00 0.00 0.00 94 1018.6
20260902103513 74 195 0.0 0.0 0.00 0.00 0.00 94 1018.6
20260902103027 74 195 0.0 0.0 0.00 0.00 0.00 94 1018.6
20260902102503 74 195 0.0 0.0 0.00 0.00 0.00 94 1018.5
20260902102004 74 195 0.0 0.0 0.00 0.00 0.00 93 1018.5
20260902101514 74 195 0.0 0.0 0.00 0.00 0.00 93 1018.4
20260902101005 74 195 0.0 0.0 0.00 0.00 0.00 93 1018.3
20260902100507 74 195 0.0 0.0 0.00 0.00 0.00 93 1018.3
20260902100021 75 195 0.0 0.0 0.00 0.00 0.00 93 1018.3
20260902095512 75 195 0.0 0.0 0.00 0.00 0.00 93 1018.2
20260902095011 75 195 0.0 0.0 0.00 0.00 0.00 93 1018.2
20260902094530 75 195 0.0 0.0 0.00 0.00 0.00 93 1018.1
20260902094011 75 195 0.0 0.0 0.00 0.00 0.00 93 1018.1
20260902093513 75 195 0.0 0.0 0.00 0.00 0.00 93 1018.0
20260902093036 75 195 0.0 0.0 0.00 0.00 0.00 93 1018.1
20260902092515 75 195 0.0 0.0 0.00 0.00 0.00 93 1018.0
20260902092014 75 195 0.0 0.0 0.00 0.00 0.00 93 1018.0
20260902091511 75 195 0.0 0.0 0.00 0.00 0.00 93 1017.9
20260902091006 75 195 0.0 0.0 0.00 0.00 0.00 93 1017.8
20260902090513 75 195 0.0 0.0 0.00 0.00 0.00 93 1017.8
20260902090020 75 195 0.0 0.0 0.00 0.00 0.00 93 1017.9
20260902085515 75 195 0.0 0.0 0.00 0.00 0.00 93 1018.0
20260902085011 75 195 0.0 0.0 0.00 0.00 0.00 93 1018.0
20260902084524 75 195 0.0 0.0 0.00 0.00 0.00 93 1018.1
20260902084014 75 195 0.0 0.0 0.00 0.00 0.00 92 1018.0
20260902083513 75 195 0.0 0.0 0.00 0.00 0.00 92 1018.0
20260902083029 75 195 0.0 0.0 0.00 0.00 0.00 92 1017.8
20260902082512 75 195 0.0 0.0 0.00 0.00 0.00 92 1017.9
20260902082012 75 195 0.0 0.0 0.00 0.00 0.00 92 1017.9
20260902081529 76 195 0.0 0.0 0.00 0.00 0.00 92 1018.0
20260902081014 76 195 0.0 0.0 0.00 0.00 0.00 91 1018.0
20260902080504 76 195 0.0 0.0 0.00 0.00 0.00 91 1018.0
20260902080016 76 195 0.0 0.0 0.00 0.00 0.00 91 1017.9
20260902075508 76 195 0.0 0.0 0.00 0.00 0.00 91 1017.9
20260902075007 76 195 0.0 0.0 0.00 0.00 0.00 91 1017.8
20260902074525 76 195 0.0 0.0 0.00 0.00 0.00 91 1018.0
20260902074015 76 195 0.0 0.0 0.00 0.00 0.00 91 1017.8
20260902073513 76 195 0.0 0.0 0.00 0.00 0.00 90 1017.8
20260902073029 76 195 0.0 0.0 0.00 0.00 0.00 90 1017.9
20260902072515 76 195 0.0 0.0 0.00 0.00 0.00 90 1018.0
20260902072015 76 195 0.0 0.0 0.00 0.00 0.00 90 1018.0
20260902071532 76 195 0.0 0.0 0.00 0.00 0.00 90 1017.9
20260902071016 77 195 0.0 0.0 0.00 0.00 0.00 89 1017.9
20260902070513 77 195 0.0 0.0 0.00 0.00 0.00 89 1017.9
20260902070033 77 195 0.0 0.0 0.00 0.00 0.00 89 1017.9
20260902065515 77 195 0.0 0.0 0.00 0.00 0.00 89 1018.0
20260902065010 77 195 0.0 0.0 0.00 0.00 0.00 89 1018.0
20260902064522 77 195 0.0 0.0 0.00 0.00 0.00 89 1018.1
20260902064011 77 195 0.0 0.0 0.00 0.00 0.00 89 1018.2
20260902063511 77 195 0.0 0.0 0.00 0.00 0.00 89 1018.2
20260902063027 77 195 0.0 0.0 0.00 0.00 0.00 89 1018.2
20260902062511 77 195 0.0 0.0 0.00 0.00 0.00 89 1018.1
20260902062014 77 195 0.0 0.0 0.00 0.00 0.00 88 1018.3
20260902061547 77 195 0.0 0.0 0.00 0.00 0.00 88 1018.2
20260902061015 77 195 0.0 0.0 0.00 0.00 0.00 88 1018.4
20260902060504 77 195 0.0 0.0 0.00 0.00 0.00 88 1018.4
20260902060017 77 195 0.0 0.0 0.00 0.00 0.00 88 1018.3
20260902055503 77 195 0.0 0.0 0.00 0.00 0.00 87 1018.2
20260902055007 78 195 0.0 0.0 0.00 0.00 0.00 87 1018.2
20260902054517 78 195 0.0 0.0 0.00 0.00 0.00 87 1018.3
20260902054006 78 195 0.0 0.0 0.00 0.00 0.00 87 1018.2
20260902053508 78 195 0.0 0.0 0.00 0.00 0.00 87 1018.2
20260902053028 78 195 0.0 0.0 0.00 0.00 0.00 87 1018.1
20260902052509 78 195 0.0 0.0 0.00 0.00 0.00 86 1018.1
20260902052014 78 195 0.0 0.0 0.00 0.00 0.00 86 1018.0
20260902051528 78 195 0.0 0.0 0.00 0.00 0.00 86 1018.0
20260902051014 78 195 0.0 0.0 0.00 0.00 0.00 85 1017.9
20260902050515 78 195 0.0 2.0 0.00 0.00 0.00 85 1017.9
20260902050029 78 195 0.0 2.0 0.00 0.00 0.00 85 1017.8
20260902045504 78 202 0.0 0.0 0.00 0.00 0.00 85 1018.0
20260902045004 78 202 0.0 0.0 0.00 0.00 0.00 85 1017.8
20260902044514 78 202 0.0 0.0 0.00 0.00 0.00 85 1017.8
20260902044009 78 202 0.0 0.0 0.00 0.00 0.00 86 1017.7
20260902043507 78 202 0.0 0.0 0.00 0.00 0.00 85 1017.6
20260902043022 78 202 0.0 0.0 0.00 0.00 0.00 86 1017.6
20260902042511 78 202 0.0 0.0 0.00 0.00 0.00 85 1017.7
20260902042010 79 202 0.0 0.0 0.00 0.00 0.00 84 1017.7
20260902041528 78 202 0.0 0.0 0.00 0.00 0.00 84 1017.6
20260902041013 79 202 0.0 0.0 0.00 0.00 0.00 84 1017.7
20260902040515 79 202 0.0 0.0 0.00 0.00 0.00 84 1017.6
20260902040030 79 202 0.0 0.0 0.00 0.00 0.00 84 1017.5
20260902035515 79 202 0.0 0.0 0.00 0.00 0.00 84 1017.6
20260902035017 79 202 0.0 0.0 0.00 0.00 0.00 83 1017.6
20260902034512 79 202 0.0 0.0 0.00 0.00 0.00 84 1017.5
20260902034006 79 202 0.0 0.0 0.00 0.00 0.00 83 1017.5
20260902033507 79 202 0.0 0.0 0.00 0.00 0.00 83 1017.5
20260902033018 79 202 0.0 0.0 0.00 0.00 0.00 83 1017.6
20260902032511 80 202 0.0 0.0 0.00 0.00 0.00 83 1017.5
20260902032011 80 202 0.0 0.0 0.00 0.00 0.00 82 1017.4
20260902031526 79 202 0.0 0.0 0.00 0.00 0.00 83 1017.4
20260902031011 79 202 0.0 0.0 0.00 0.00 0.00 83 1017.3
20260902030512 80 202 0.0 0.0 0.00 0.00 0.00 82 1017.5
20260902030031 80 202 0.0 0.0 0.00 0.00 0.00 81 1017.5
20260902025515 80 202 0.0 0.0 0.00 0.00 0.00 81 1017.4
20260902025014 80 202 0.0 0.0 0.00 0.00 0.00 81 1017.3
20260902024537 80 202 0.0 0.0 0.00 0.00 0.00 80 1017.4
20260902024015 80 202 0.0 0.0 0.00 0.00 0.00 80 1017.4
20260902023514 81 202 0.0 0.0 0.00 0.00 0.00 80 1017.3
20260902023016 81 202 0.0 0.0 0.00 0.00 0.00 80 1017.3
20260902022508 81 202 0.0 0.0 0.00 0.00 0.00 79 1017.3
20260902022008 81 202 0.0 0.0 0.00 0.00 0.00 79 1017.3
20260902021523 81 202 0.0 0.0 0.00 0.00 0.00 79 1017.4
20260902021011 81 202 0.0 0.0 0.00 0.00 0.00 79 1017.1
20260902020512 81 202 0.0 0.0 0.00 0.00 0.00 79 1017.1
20260902020025 81 202 0.0 0.0 0.00 0.00 0.00 80 1017.0
20260902015513 81 202 0.0 0.0 0.00 0.00 0.00 79 1017.0
20260902015012 81 202 0.0 0.0 0.00 0.00 0.00 79 1016.9
20260902014534 82 202 0.0 0.0 0.00 0.00 0.00 79 1016.8
20260902014013 82 202 0.0 0.0 0.00 0.00 0.00 78 1016.8
20260902013516 82 202 0.0 0.0 0.00 0.00 0.00 77 1016.8
20260902013034 82 202 0.0 0.0 0.00 0.00 0.00 77 1016.8
20260902012521 82 202 0.0 0.0 0.00 0.00 0.00 77 1016.7
20260902012008 82 202 0.0 0.0 0.00 0.00 0.00 77 1016.7
20260902011520 82 202 0.0 0.0 0.00 0.00 0.00 77 1016.6
20260902011010 82 202 0.0 0.0 0.00 0.00 0.00 77 1016.7
20260902010511 83 202 0.0 0.0 0.00 0.00 0.00 77 1016.5
20260902010022 82 202 0.0 0.0 0.00 0.00 0.00 77 1016.5
20260902005511 83 202 0.0 0.0 0.00 0.00 0.00 76 1016.4
20260902005011 83 202 0.0 0.0 0.00 0.00 0.00 76 1016.4
20260902004528 83 202 0.0 0.0 0.00 0.00 0.00 75 1016.4
20260902004015 84 202 0.0 0.0 0.00 0.00 0.00 74 1016.3
20260902003515 84 202 0.0 0.0 0.00 0.00 0.00 74 1016.2
20260902003038 84 202 0.0 0.0 0.00 0.00 0.00 74 1016.3
20260902002515 84 202 0.0 0.0 0.00 0.00 0.00 74 1016.3
20260902002016 84 202 0.0 0.0 0.00 0.00 0.00 73 1016.4
20260902001549 84 202 0.0 0.0 0.00 0.00 0.00 74 1016.3
20260902001007 84 202 0.0 0.0 0.00 0.00 0.00 74 1016.2
20260902000509 84 202 0.0 0.0 0.00 0.00 0.00 74 1016.4
20260902000026 85 202 0.0 0.0 0.00 0.00 0.00 73 1016.5
20260901235513 85 202 0.0 0.0 0.00 0.00 0.00 72 1016.6
20260901235013 85 202 0.0 0.0 0.00 0.00 0.00 71 1016.5
20260901234529 86 202 0.0 0.0 0.00 0.00 0.00 70 1016.4
20260901234015 86 202 0.0 0.0 0.00 0.00 0.00 70 1016.5
20260901233512 86 202 0.0 0.0 0.00 0.00 0.00 69 1016.6
20260901233029 87 202 0.0 0.0 0.00 0.00 0.00 68 1016.6
20260901232514 87 202 0.0 0.0 0.00 0.00 0.00 68 1016.6
20260901232016 88 202 0.0 0.0 0.00 0.00 0.00 64 1016.6
20260901231534 88 202 0.0 0.0 0.00 0.00 0.00 63 1016.7
20260901231016 89 198 0.0 2.0 0.00 0.00 0.00 63 1016.7
20260901230516 89 198 0.0 2.0 0.00 0.00 0.00 62 1016.7
20260901230033 89 196 0.0 2.0 0.00 0.00 0.00 61 1016.7
20260901225511 89 196 0.0 0.0 0.00 0.00 0.00 61 1016.6
20260901225012 89 196 0.0 0.0 0.00 0.00 0.00 62 1016.6
20260901224526 90 196 0.0 0.0 0.00 0.00 0.00 61 1016.7
20260901224003 90 196 0.0 0.0 0.00 0.00 0.00 58 1016.6
20260901223503 91 196 0.0 0.0 0.00 0.00 0.00 59 1016.5
20260901223006 91 196 0.0 0.0 0.00 0.00 0.00 56 1016.4
20260901222503 91 196 0.0 0.0 0.00 0.00 0.00 55 1016.5
20260901222003 92 196 0.0 0.0 0.00 0.00 0.00 56 1016.5
20260901221511 92 190 0.0 2.0 0.00 0.00 0.00 55 1016.6
20260901221006 93 190 0.0 2.0 0.00 0.00 0.00 53 1016.7
20260901220508 93 175 0.0 2.0 0.00 0.00 0.00 51 1016.7
20260901220017 93 233 0.0 2.0 0.00 0.00 0.00 55 1016.6
20260901215508 93 9 0.0 2.0 0.00 0.00 0.00 56 1016.6
20260901215010 93 143 0.0 0.0 0.00 0.00 0.00 56 1016.7
20260901214522 93 143 0.0 0.0 0.00 0.00 0.00 55 1016.7
20260901214012 93 143 0.0 0.0 0.00 0.00 0.00 57 1016.7
20260901213514 93 143 0.0 0.0 0.00 0.00 0.00 55 1016.6
20260901213011 93 143 0.0 2.0 0.00 0.00 0.00 54 1016.6
20260901212504 93 238 0.0 2.0 0.00 0.00 0.00 54 1016.6
20260901212007 93 348 0.0 2.0 0.00 0.00 0.00 53 1016.6
20260901211509 93 108 0.0 2.0 0.00 0.00 0.00 52 1016.7
20260901211005 93 223 0.0 0.0 0.00 0.00 0.00 51 1016.6
20260901210507 94 209 0.0 1.0 0.00 0.00 0.00 53 1016.6
20260901210014 93 209 0.0 2.0 0.00 0.00 0.00 51 1016.6
20260901205507 94 100 0.0 2.0 0.00 0.00 0.00 49 1016.6
20260901205008 94 9 0.0 2.0 0.00 0.00 0.00 46 1016.6
20260901204520 95 11 0.0 3.0 0.00 0.00 0.00 46 1016.6
20260901204012 96 209 0.0 3.0 0.00 0.00 0.00 45 1016.6
20260901203512 96 5 1.0 2.0 0.00 0.00 0.00 45 1016.6
20260901203037 96 57 0.0 2.0 0.00 0.00 0.00 46 1016.7
20260901202513 96 328 0.0 2.0 0.00 0.00 0.00 47 1016.7
20260901202015 96 99 0.0 2.0 0.00 0.00 0.00 48 1016.7
20260901201505 94 223 0.0 2.0 0.00 0.00 0.00 49 1016.6
20260901201005 94 235 0.0 2.0 0.00 0.00 0.00 51 1016.7
20260901200503 93 272 0.0 2.0 0.00 0.00 0.00 51 1016.8
20260901200010 94 272 0.0 2.0 0.00 0.00 0.00 49 1016.9
20260901195506 94 271 0.0 1.0 0.00 0.00 0.00 53 1017.0
20260901195007 94 24 0.0 2.0 0.00 0.00 0.00 51 1017.1
20260901194518 95 165 0.0 2.0 0.00 0.00 0.00 50 1017.1
20260901194010 94 207 0.0 4.0 0.00 0.00 0.00 51 1017.1
20260901193512 94 231 1.0 3.0 0.00 0.00 0.00 51 1017.1
20260901193024 94 11 0.0 2.0 0.00 0.00 0.00 49 1017.2
20260901192513 94 265 0.0 2.0 0.00 0.00 0.00 48 1017.2
20260901192014 94 340 0.0 2.0 0.00 0.00 0.00 52 1017.3
20260901191550 95 224 0.0 2.0 0.00 0.00 0.00 52 1017.3
20260901191014 95 165 0.0 2.0 0.00 0.00 0.00 50 1017.4
20260901190504 96 231 0.0 2.0 0.00 0.00 0.00 49 1017.4
20260901190009 94 190 0.0 2.0 0.00 0.00 0.00 51 1017.4
20260901185510 93 46 0.0 2.0 0.00 0.00 0.00 51 1017.4